[[{"header":{"parameterUnit":"m.s-1","parameterCategory":1,"la1":30.2991,"la2":30.254,"lo1":-89.0895,"lo2":-89.0444,"dx":0.0017,"dy":0.0017,"nx":28,"ny":28,"refTime":"2022-11-15T15:00:00:Z","depth":0,"parameterNumber":2,"parameterNumberName":"U-component_of_WINDS"},"data":[0,0,0,0,0,0,0,0,0,0,0,0,0,0,0,0,0,0,0,0,0,0,0,0,0,0,0,0,0,0,0,0,0,0,0,0,0,0,0,0,0,0,0,0,0,0,0,0,0,0,0,0,0,0,0,0,0,0,-0.0425,-0.0426,0,-0.045,-0.0451,-0.0451,-0.0437,-0.0436,-0.0435,-0.0435,-0.0463,-0.0464,-0.0465,0,0,0,0,0,0,0,0,0,0,0,0,0,-0.0366,-0.0368,-0.0425,-0.0426,-0.0426,-0.045,-0.0451,-0.0451,-0.0437,-0.0436,-0.0435,-0.0434,-0.0462,-0.0464,-0.0466,0,0,0,0,0,0,0,0,0,0,0,0,0,-0.0392,-0.0368,-0.0425,-0.0422,-0.0422,-0.045,-0.0451,-0.0451,-0.0437,-0.0436,-0.0435,-0.0434,-0.0462,-0.0464,-0.0466,-0.05,0,0,-0.0472,-0.0473,0,0,0,0,0,0,0,0,-0.039,-0.0394,-0.0422,-0.0422,-0.0422,-0.0439,-0.044,-0.0468,-0.0437,-0.0431,-0.0435,-0.0434,-0.0456,-0.0458,-0.0466,-0.0501,-0.0502,-0.0472,-0.0474,-0.0475,-0.0475,0,0,0,0,0,0,0,-0.0389,-0.0393,-0.0435,-0.0422,-0.0422,-0.0419,-0.0422,-0.0445,-0.0449,-0.0432,-0.0431,-0.0434,-0.0456,-0.0464,-0.0466,-0.0503,-0.0472,-0.0474,-0.0475,-0.0476,-0.0567,-0.0569,0,0,0,0,0,0,-0.0387,-0.0392,-0.0434,-0.0436,-0.0403,-0.0421,-0.0424,-0.0435,-0.0449,-0.045,-0.0435,-0.0433,-0.046,-0.0464,-0.0467,-0.0508,-0.0474,-0.0476,-0.0478,-0.0566,-0.0568,-0.0569,0,0,0,0,0,0,-0.0386,-0.0391,-0.0433,-0.0414,-0.0419,-0.0423,-0.0436,-0.0436,-0.0444,-0.0451,-0.0452,-0.0442,-0.046,-0.0464,-0.0492,-0.0509,-0.0477,-0.0479,-0.0565,-0.0567,-0.0568,-0.0591,0,0,0,0,0,0,-0.0384,-0.0391,-0.0403,-0.0414,-0.042,-0.0457,-0.0437,-0.0437,-0.0447,-0.0445,-0.0458,-0.0459,-0.0459,-0.0489,-0.0494,-0.0511,-0.0481,-0.0563,-0.0566,-0.0568,-0.0588,-0.0593,-0.0597,0,0,0,0,0,-0.0382,-0.0409,-0.0404,-0.0409,-0.0436,-0.0458,-0.0462,-0.0461,-0.0449,-0.0462,-0.0466,-0.0459,-0.0506,-0.0491,-0.0497,-0.0516,-0.0562,-0.0565,-0.0568,-0.0586,-0.0592,-0.0597,0,0,0,0,0,0,-0.0402,-0.041,-0.0405,-0.0436,-0.0446,-0.0456,-0.0473,-0.0467,-0.0481,-0.0479,-0.0477,-0.048,-0.0509,-0.0515,-0.0499,-0.0549,-0.0532,-0.0536,-0.0545,-0.055,-0.0554,-0.0553,-0.0483,0,0,0,0,0,-0.0409,-0.0426,-0.0433,-0.046,-0.0465,-0.0468,-0.0478,-0.0476,-0.0487,-0.0491,-0.0498,-0.051,-0.0527,-0.0538,-0.0555,-0.0588,-0.0591,-0.0604,-0.0608,-0.0611,-0.0615,-0.0634,-0.064,-0.0578,-0.0577,-0.0577,0,0,-0.0426,-0.0433,-0.0444,-0.0464,-0.0472,-0.049,-0.0472,-0.0492,-0.0506,-0.0495,-0.0521,-0.0526,-0.0539,-0.057,-0.0584,-0.0576,-0.0633,-0.0615,-0.0617,-0.0619,-0.0637,-0.0643,-0.0648,-0.0579,-0.0579,-0.0579,0,0,-0.0465,-0.0472,-0.0495,-0.0503,-0.0515,-0.0516,-0.0522,-0.0532,-0.0535,-0.0561,-0.0553,-0.0569,-0.0599,-0.0608,-0.0617,-0.0659,-0.0653,-0.0664,-0.0686,-0.0704,-0.0709,-0.0714,-0.0729,-0.0735,-0.0667,-0.0667,-0.0667,0,-0.0485,-0.0512,-0.0508,-0.0529,-0.0538,-0.0527,-0.0551,-0.0559,-0.0576,-0.0583,-0.0573,-0.061,-0.0617,-0.065,-0.0661,-0.0668,-0.0674,-0.0663,-0.0709,-0.0713,-0.0717,-0.0732,-0.0738,-0.0669,-0.0669,-0.0668,-0.0668,0,-0.0535,-0.0554,-0.0571,-0.0587,-0.0598,-0.062,-0.062,-0.0632,-0.0628,-0.0631,-0.0658,-0.0666,-0.0684,-0.0691,-0.0689,-0.0724,-0.0718,-0.0709,-0.0692,-0.0724,-0.0739,-0.0744,-0.0671,-0.067,-0.067,-0.0669,0,0,-0.059,-0.0602,-0.0609,-0.0615,-0.0627,-0.0641,-0.0663,-0.0679,-0.069,-0.0701,-0.072,-0.0744,-0.0735,-0.0745,-0.0743,-0.0758,-0.0792,-0.0747,-0.0747,-0.0756,-0.0832,-0.084,-0.0847,-0.0787,-0.0788,-0.0789,-0.0831,0,-0.0631,-0.0668,-0.0665,-0.07,-0.0718,-0.0707,-0.0726,-0.0735,-0.0738,-0.0753,-0.0756,-0.0774,-0.076,-0.0766,-0.078,-0.0785,-0.0807,-0.0781,-0.0805,-0.0806,-0.0804,-0.0854,-0.0863,-0.0903,-0.0837,-0.0837,-0.0838,0,-0.0685,-0.0697,-0.0734,-0.0742,-0.0749,-0.0766,-0.0781,-0.0796,-0.0806,-0.0807,-0.0817,-0.0812,-0.0834,-0.0815,-0.0846,-0.0828,-0.0837,-0.0841,-0.0842,-0.0846,-0.0825,-0.086,-0.0915,-0.0922,-0.0847,-0.0846,-0.0845,0,-0.0722,-0.0748,-0.0773,-0.0779,-0.0789,-0.0802,-0.0806,-0.0815,-0.0825,-0.0838,-0.0845,-0.086,-0.0869,-0.0881,-0.0881,-0.0867,-0.0912,-0.0893,-0.0914,-0.0914,-0.0925,-0.0925,-0.0984,-0.0929,-0.0929,-0.0929,-0.0929,0,-0.0769,-0.0792,-0.079,-0.0806,-0.0832,-0.0827,-0.0853,-0.0857,-0.0865,-0.0881,-0.0873,-0.0889,-0.0886,-0.0902,-0.0902,-0.0927,-0.0931,-0.0933,-0.0933,-0.0934,-0.0934,-0.0942,-0.094,-0.093,-0.093,-0.093,-0.0929,0,-0.0816,-0.0815,-0.0842,-0.0849,-0.0851,-0.087,-0.0876,-0.0891,-0.0892,-0.0914,-0.0918,-0.092,-0.0939,-0.0939,-0.096,-0.0959,-0.0991,-0.0987,-0.0988,-0.0987,-0.1009,-0.1007,-0.1076,-0.1085,-0.1023,-0.1023,-0.1024,0,-0.0847,-0.0864,-0.0873,-0.0883,-0.0888,-0.0905,-0.0915,-0.0911,-0.0922,-0.0934,-0.0948,-0.0965,-0.0979,-0.1009,-0.1012,-0.1028,-0.1025,-0.1048,-0.1028,-0.1029,-0.1027,-0.1027,-0.1029,-0.1053,-0.1054,-0.1054,-0.1055,0,-0.0902,-0.0901,-0.0915,-0.0929,-0.0941,-0.0952,-0.0962,-0.0971,-0.0968,-0.0981,-0.0999,-0.101,-0.103,-0.1048,-0.1063,-0.1068,-0.1062,-0.1061,-0.1067,-0.1069,-0.1069,-0.1071,-0.1,-0.106,-0.1059,-0.1059,-0.1058,-0.1058,-0.0943,-0.0958,-0.0966,-0.0982,-0.0989,-0.0999,-0.1013,-0.1016,-0.103,-0.1047,-0.1043,-0.1064,-0.1073,-0.1093,-0.1099,-0.1115,-0.1108,-0.1116,-0.1118,-0.1121,-0.1124,-0.1065,-0.1118,-0.1118,-0.1118,-0.1118,-0.1118,0,-0.0999,-0.1003,-0.1018,-0.1032,-0.1045,-0.1035,-0.1046,-0.1057,-0.1075,-0.1084,-0.1097,-0.1118,-0.1135,-0.1139,-0.1155,-0.1167,-0.1164,-0.1172,-0.1172,-0.1173,-0.1129,-0.1123,-0.1174,-0.1174,-0.1174,-0.1174,-0.1174,-0.1174,-0.103,-0.1055,-0.1054,-0.1083,-0.1087,-0.1106,-0.1113,-0.1122,-0.1129,-0.1152,-0.1166,-0.1168,-0.1175,-0.1191,-0.1206,-0.1207,-0.1214,-0.1223,-0.1222,-0.1182,-0.1176,-0.1171,-0.1165,-0.1224,-0.1224,-0.1265,-0.1265,-0.1266]},{"header":{"parameterUnit":"m.s-1","parameterCategory":1,"la1":30.2991,"la2":30.254,"lo1":-89.0895,"lo2":-89.0444,"dx":0.0017,"dy":0.0017,"nx":28,"ny":28,"refTime":"2022-11-15T15:00:00:Z","depth":0,"parameterNumber":3,"parameterNumberName":"V-component_of_WINDS"},"data":[0,0,0,0,0,0,0,0,0,0,0,0,0,0,0,0,0,0,0,0,0,0,0,0,0,0,0,0,0,0,0,0,0,0,0,0,0,0,0,0,0,0,0,0,0,0,0,0,0,0,0,0,0,0,0,0,0,0,-6.667,-6.6671,0,-6.6767,-6.6768,-6.677,-6.6732,-6.673,-6.6728,-6.6726,-6.682,-6.6825,-6.6829,0,0,0,0,0,0,0,0,0,0,0,0,0,-6.6446,-6.645,-6.667,-6.6671,-6.6672,-6.6767,-6.6769,-6.677,-6.6733,-6.673,-6.6727,-6.6725,-6.6819,-6.6824,-6.683,0,0,0,0,0,0,0,0,0,0,0,0,0,-6.6543,-6.6452,-6.6669,-6.6665,-6.6666,-6.6767,-6.6769,-6.677,-6.6733,-6.673,-6.6727,-6.6724,-6.6817,-6.6824,-6.683,-6.6939,0,0,-6.6851,-6.6854,0,0,0,0,0,0,0,0,-6.6538,-6.6552,-6.6665,-6.6666,-6.6667,-6.6734,-6.6724,-6.6827,-6.6734,-6.6708,-6.6726,-6.6722,-6.6794,-6.6802,-6.6828,-6.6944,-6.6948,-6.6852,-6.6856,-6.6859,-6.6861,0,0,0,0,0,0,0,-6.6531,-6.6547,-6.6708,-6.6666,-6.6668,-6.6657,-6.6667,-6.6743,-6.6768,-6.671,-6.6707,-6.672,-6.6794,-6.6821,-6.683,-6.6949,-6.6852,-6.6858,-6.6862,-6.6865,-6.716,-6.7164,0,0,0,0,0,0,-6.6525,-6.6542,-6.6705,-6.6711,-6.6593,-6.6664,-6.6675,-6.6716,-6.6767,-6.6772,-6.6722,-6.6718,-6.6811,-6.6822,-6.6833,-6.6965,-6.6859,-6.6865,-6.6869,-6.7157,-6.7161,-6.7165,0,0,0,0,0,0,-6.652,-6.654,-6.6701,-6.6626,-6.6646,-6.6671,-6.6717,-6.672,-6.6747,-6.6777,-6.678,-6.6747,-6.6809,-6.6823,-6.6914,-6.6968,-6.6869,-6.6875,-6.7152,-6.7158,-6.7163,-6.7229,0,0,0,0,0,0,-6.6514,-6.6538,-6.6581,-6.6627,-6.665,-6.6782,-6.6721,-6.6724,-6.676,-6.6755,-6.68,-6.6805,-6.6808,-6.6904,-6.6921,-6.6975,-6.688,-6.7147,-6.7155,-6.7161,-6.7223,-6.7237,-6.7249,0,0,0,0,0,-6.6506,-6.6594,-6.6584,-6.6603,-6.6704,-6.6785,-6.6798,-6.6801,-6.6764,-6.6807,-6.6826,-6.6803,-6.6959,-6.6913,-6.6932,-6.699,-6.7144,-6.7153,-6.7161,-6.7217,-6.7234,-6.7248,0,0,0,0,0,0,-6.6551,-6.66,-6.6589,-6.6695,-6.6737,-6.6779,-6.6833,-6.6819,-6.687,-6.6863,-6.6862,-6.6873,-6.6967,-6.6987,-6.6935,-6.7098,-6.7046,-6.7058,-6.7082,-6.7098,-6.7111,-6.7104,-6.6886,0,0,0,0,0,-6.6574,-6.6638,-6.6676,-6.6766,-6.6788,-6.6807,-6.6842,-6.6841,-6.6883,-6.69,-6.6926,-6.6966,-6.7024,-6.7062,-6.7117,-6.7225,-6.7235,-6.7274,-6.7287,-6.7297,-6.7308,-6.7368,-6.7386,-6.7193,-6.7193,-6.7193,0,0,-6.6621,-6.6656,-6.6695,-6.6776,-6.6808,-6.6873,-6.6822,-6.6892,-6.6939,-6.691,-6.6998,-6.7018,-6.7063,-6.7163,-6.7208,-6.7183,-6.7364,-6.7308,-6.7316,-6.7322,-6.7378,-6.7396,-6.7412,-6.7198,-6.7197,-6.7196,0,0,-6.674,-6.6773,-6.6852,-6.6886,-6.6936,-6.6948,-6.6967,-6.7012,-6.7025,-6.7114,-6.7094,-6.7149,-6.7249,-6.7282,-6.7312,-6.7445,-6.7426,-6.7463,-6.7531,-6.7589,-6.7604,-6.7617,-6.7665,-6.7682,-6.7474,-6.7474,-6.7474,0,-6.6791,-6.689,-6.6893,-6.6966,-6.7002,-6.6981,-6.7061,-6.7093,-6.7157,-6.7182,-6.7153,-6.7279,-6.7308,-6.7416,-6.7448,-6.7473,-6.7494,-6.7458,-6.7602,-6.7615,-6.7628,-6.7674,-6.7692,-6.7478,-6.7477,-6.7477,-6.7477,0,-6.6951,-6.7019,-6.7077,-6.7143,-6.7185,-6.7261,-6.7275,-6.7317,-6.7312,-6.7327,-6.7418,-6.7452,-6.7514,-6.7539,-6.7534,-6.7647,-6.763,-6.7601,-6.7549,-6.7651,-6.7693,-6.7711,-6.7484,-6.7482,-6.7481,-6.748,0,0,-6.71,-6.7169,-6.719,-6.722,-6.7275,-6.7327,-6.7401,-6.7464,-6.75,-6.7545,-6.7607,-6.7693,-6.7668,-6.7702,-6.7701,-6.7752,-6.7856,-6.7717,-6.7718,-6.7742,-6.7982,-6.8003,-6.8024,-6.7843,-6.7847,-6.7849,-6.7978,0,-6.7224,-6.7357,-6.7363,-6.7484,-6.7547,-6.7529,-6.7593,-6.7633,-6.7649,-6.7704,-6.772,-6.7782,-6.7743,-6.7764,-6.7813,-6.7833,-6.7904,-6.7823,-6.79,-6.7903,-6.789,-6.8046,-6.8069,-6.8189,-6.7995,-6.7998,-6.8,0,-6.7386,-6.7439,-6.7567,-6.7614,-6.764,-6.7699,-6.7758,-6.781,-6.7855,-6.7863,-6.7902,-6.7894,-6.7968,-6.7914,-6.8016,-6.7962,-6.7993,-6.8007,-6.8012,-6.8019,-6.7958,-6.8058,-6.8227,-6.8245,-6.8026,-6.8024,-6.8022,0,-6.7483,-6.7586,-6.7677,-6.7703,-6.7759,-6.7801,-6.7826,-6.7867,-6.7905,-6.7956,-6.798,-6.8038,-6.8069,-6.8114,-6.8121,-6.808,-6.8224,-6.8169,-6.8232,-6.8232,-6.8263,-6.8261,-6.8441,-6.8283,-6.8283,-6.8283,-6.8282,0,-6.7621,-6.77,-6.7722,-6.7777,-6.7865,-6.787,-6.7956,-6.7978,-6.8015,-6.8073,-6.806,-6.8114,-6.8121,-6.8176,-6.8182,-6.8267,-6.8281,-6.8289,-6.8289,-6.829,-6.8289,-6.8311,-6.8303,-6.8287,-6.8286,-6.8285,-6.8285,0,-6.7744,-6.7762,-6.7859,-6.7906,-6.7919,-6.7982,-6.8021,-6.8073,-6.8088,-6.8162,-6.818,-6.8203,-6.8268,-6.828,-6.8356,-6.836,-6.8461,-6.8453,-6.8447,-6.8446,-6.8509,-6.8503,-6.8708,-6.8736,-6.856,-6.8562,-6.8563,0,-6.7831,-6.7892,-6.7946,-6.7985,-6.8013,-6.8076,-6.8116,-6.8123,-6.8164,-6.822,-6.8266,-6.833,-6.8382,-6.8487,-6.851,-6.8568,-6.8561,-6.8629,-6.857,-6.8569,-6.8563,-6.8559,-6.8566,-6.8641,-6.8642,-6.8644,-6.8645,0,-6.7984,-6.799,-6.8048,-6.8111,-6.8159,-6.8207,-6.8253,-6.8285,-6.8299,-6.8346,-6.8414,-6.8455,-6.8534,-6.8598,-6.8656,-6.8679,-6.8665,-6.8664,-6.8682,-6.8684,-6.8678,-6.8683,-6.8479,-6.8659,-6.8658,-6.8657,-6.8656,-6.8655,-6.8092,-6.8146,-6.8193,-6.8258,-6.8294,-6.8338,-6.839,-6.8413,-6.8471,-6.8538,-6.8538,-6.8612,-6.8655,-6.8732,-6.876,-6.8817,-6.8795,-6.8821,-6.8827,-6.8834,-6.884,-6.8669,-6.8828,-6.8827,-6.8827,-6.8827,-6.8826,0,-6.8245,-6.8274,-6.8335,-6.8401,-6.8453,-6.8437,-6.8487,-6.8531,-6.8597,-6.864,-6.8692,-6.877,-6.8832,-6.886,-6.8921,-6.8962,-6.8957,-6.8978,-6.8975,-6.8981,-6.8856,-6.8835,-6.8981,-6.8981,-6.8981,-6.8981,-6.8981,-6.8981,-6.833,-6.8421,-6.8433,-6.8541,-6.8569,-6.8644,-6.8674,-6.8714,-6.8748,-6.8837,-6.889,-6.8909,-6.8945,-6.9009,-6.9065,-6.9071,-6.9094,-6.9119,-6.9122,-6.9005,-6.8989,-6.8974,-6.8955,-6.9124,-6.9124,-6.9242,-6.9243,-6.9244]}]]